Current weather by "City, St" or "zip code"  
 
Advertise Here

Current Conditions: Pittsfield Municipal Airport, MA

Overcast


66.0 F

Last Updated on Sep 16 2021, 10:54 pm EDT
Humidity: 84%
Wind Speed: 4.6 mph
Barometer 30.32 in
Dewpoint: 61.0 F
Visibility: 10.00 mi
Precip: --
Heat Index: NA
Wind Chill: NA
Current conditions at:

Pittsfield Municipal Airport, MA (KPSF)

Lat: 42.42691 Lon: 73.28897

Local Radar Image active severe weather and emergency alerts image image weather storm and storm spotter reports image weather observation monitoring service image
Local
Radar
Active
Alerts
Storm Reports Obs
Monitoring

Sign-up For Email & Text Message Weather Alert Notification Services



Advertise Here

Observation History for Pittsfield Municipal Airport, MA


Time Wind
(mph)
Vis
(mi)
Weather Precip (in) Temperature (F) Relative
Humidity
Wind
Chill
(F)
Heat
Index
(F)
Pressure
Air Dwpt altimeter
(in)
sea level
(mb)
Rmks
10:54 pm EDT 4.6 10.00 Overcast -- 66.0 61.0 84% NA NA 30.32 1024.5
9:54 pm EDT NE 5.8 10.00 Overcast -- 66.0 62.1 87% NA NA 30.31 1024.4
8:54 pm EDT N 0.0 10.00 Overcast -- 67.0 62.1 84% NA NA 30.30 1024.2
7:54 pm EDT N 0.0 10.00 Overcast -- 67.0 63.0 87% NA NA 30.29 1023.8
6:54 pm EDT E 4.6 10.00 Overcast -- 68.0 62.1 81% NA NA 30.28 1023.3
5:54 pm EDT E 4.6 10.00 Overcast -- 69.0 61.0 76% NA NA 30.26 1022.6
4:54 pm EDT E 4.6 10.00 Overcast -- 71.0 61.0 71% NA NA 30.25 1022.1
3:54 pm EDT SE 10.4 10.00 Mostly Cloudy -- 72.0 60.1 66% NA NA 30.24 1021.9
2:54 pm EDT SE 5.8 10.00 Overcast -- 74.0 60.1 62% NA NA 30.24 1022.0
12:54 pm EDT E 3.5 10.00 Overcast -- 69.0 59.0 70% NA NA 30.27 1023.0
11:54 am EDT NE 4.6 10.00 Overcast -- 68.0 59.0 73% NA NA 30.27 1022.8
10:54 am EDT E 4.6 10.00 Mostly Cloudy -- 66.0 59.0 78% NA NA 30.26 1022.7
9:54 am EDT NE 4.6 10.00 Overcast -- 64.0 61.0 90% NA NA 30.25 1022.4
8:54 am EDT NE 4.6 10.00 Overcast -- 62.0 60.1 93% 62 NA 30.24 1022.0
7:54 am EDT N 0.0 10.00 Mostly Cloudy -- 61.0 59.0 93% NA NA 30.21 1021.1
6:54 am EDT NE 4.6 8.00 Fair -- 59.0 57.9 96% 59 NA 30.17 1019.9
5:54 am EDT N 0.0 10.00 Overcast -- 61.0 59.0 93% NA NA 30.15 1019.0
4:54 am EDT SW 3.5 10.00 Overcast Trace 61.0 59.0 93% NA NA 30.16 1019.2
3:54 am EDT N 0.0 6.00 Light Rain Fog/Mist 00.12 60.0 59.0 96% NA NA 30.12 1017.6
2:54 am EDT N 0.0 7.00 Light Rain 00.06 60.0 59.0 96% NA NA 30.13 1017.9
1:54 am EDT W 5.8 10.00 Light Rain 00.04 61.0 59.0 93% 61 NA 30.13 1017.9
12:54 am EDT N 0.0 3.00 Light Rain Fog/Mist 00.05 62.0 60.1 93% NA NA 30.13 1017.8
11:54 pm EDT W 4.6 10.00 Light Rain 00.01 63.0 60.1 90% 64 NA 30.11 1017.2

Regional Weather Observation


Albany International Airport, NY (KALB)

Partly Cloudy
66.0 F

Bennington Morse State Airport, VT (KDDH)

Mostly Cloudy
67.0 F

Pittsfield Municipal Airport, MA (KPSF)

Overcast
66.0 F

Schenectady Airport, NY (KSCH)

Overcast
68.0 F

Fulton County Airport, NY (KNY0)

Overcast
63.0 F

Westfield, Barnes Municipal Airport, MA (KBAF)

Overcast
67.0 F
Advertise Here


Advertise Here